Flag for Saint Vincent and Grenadines Weather past 2 weeks in Kingstown, Saint Vincent and Grenadines

Now
82 °F

Scattered clouds.


Feels Like: 91 °F
Forecast: N/A
Wind: 14 mph from East

Location: Arnos Vale

Current Time: Aug 2, 2015 at 6:31:16 PM

Latest Report: Aug 2, 2015 at 5:00 PM


Visibility: N/A

Pressure: 29.92 "Hg

Humidity: 84%

Dew point: 77 °F

Location of KingstownLocation

Historic Weather in Kingstown — Graph

°F

Kingstown temperature yesterday

Maximum temperature yesterday: 86 °F (at 9:00 AM)
Minimum temperature yesterday: 81 °F (at 12:00 AM)
Average temperature yesterday: 84 °F

Past Weeks' High & Low Weather Summary

 TemperatureHumidityPressure
High88 °F (Jul 19, 3:00 PM)94% (Jul 20, 5:00 PM)30.09 "Hg (Jul 20, 5:00 PM)
Low75 °F (Jul 31, 1:00 PM)59% (Jul 24, 2:00 PM)26.72 "Hg (Jul 30, 3:00 PM)
Average83 °F76%29.99 "Hg
* Reported Jul 18 4:00 PM — Aug 2 4:00 PM, Kingstown, Weather by CustomWeather, © 2015

Note: Actual official high and low records may vary slightly from our data, if they occured in-between our weather recording intervals... More about our weather records

Advertising

Kingstown weather history for previous 24 hours

 ConditionsComfort  
Time TempWeatherWind HumidityBarometerVisibility
4:00 PM
Sun, Aug 2
86 °FScattered clouds.14 mph70%29.92 "HgN/A
3:00 PM88 °FScattered clouds.13 mph66%29.92 "HgN/A
2:00 PM88 °FScattered clouds.15 mph66%29.95 "HgN/A
1:00 PM86 °FPassing clouds.14 mph70%29.95 "HgN/A
12:00 PM84 °FScattered clouds.12 mph74%29.98 "HgN/A
11:00 AM86 °FScattered clouds.16 mph70%29.98 "HgN/A
10:00 AM86 °FScattered clouds.14 mph70%29.98 "HgN/A
9:00 AM84 °FPartly sunny.14 mph74%29.98 "HgN/A
8:00 AM82 °FPartly sunny.8 mph84%29.98 "HgN/A
7:00 AM81 °FSprinkles. Partly sunny.7 mph84%29.95 "HgN/A
6:00 AM79 °FScattered clouds.6 mph84%29.92 "HgN/A
11:00 PM
Sat, Aug 1
81 °FPassing clouds.No wind79%29.98 "HgN/A
10:00 PM81 °FPassing clouds.7 mph79%29.98 "HgN/A
9:00 PM81 °FPassing clouds.7 mph79%29.95 "HgN/A
8:00 PM82 °FPassing clouds.7 mph70%29.95 "HgN/A
7:00 PM82 °FPassing clouds.9 mph74%29.95 "HgN/A
6:00 PM84 °FPartly sunny.No wind70%29.92 "HgN/A
Weather by CustomWeather, © 2015

See weather overviewHow to use our weather pages